Time,TemperatureF,DewpointF,PressureIn,WindDirection,WindDirectionDegrees,WindSpeedMPH,WindSpeedGustMPH,Humidity,HourlyPrecipIn,Conditions,Clouds,dailyrainin,SoftwareType,DateUTC
2013-06-05 00:00:00,56.0,45.6,30.09,East,90,0.0,0.0,68,0.00,,,-99.99,Weather View 32 v60,2013-06-05 05:00:00,
2013-06-05 00:15:00,56.0,44.8,30.10,WNW,292,0.0,0.0,66,0.00,,,-99.99,Weather View 32 v60,2013-06-05 05:15:00,
2013-06-05 00:30:00,56.0,44.8,30.08,NE,45,0.0,0.0,66,0.00,,,-99.99,Weather View 32 v60,2013-06-05 05:30:00,
2013-06-05 00:31:00,56.0,44.8,30.08,NE,45,0.0,0.0,66,0.00,,,-99.99,Weather View 32 v60,2013-06-05 05:31:00,
2013-06-05 00:45:00,56.0,44.8,30.09,NE,45,0.0,0.0,66,0.00,,,-99.99,Weather View 32 v60,2013-06-05 05:45:00,
2013-06-05 01:00:00,57.0,45.7,30.09,North,360,0.0,2.0,66,0.00,,,-99.99,Weather View 32 v60,2013-06-05 06:00:00,
2013-06-05 01:15:00,57.0,46.1,30.08,East,90,0.0,2.0,67,0.00,,,-99.99,Weather View 32 v60,2013-06-05 06:15:00,
2013-06-05 01:30:00,57.0,45.3,30.08,East,90,0.0,2.0,65,0.00,,,-99.99,Weather View 32 v60,2013-06-05 06:30:00,
2013-06-05 01:45:00,57.0,45.7,30.09,NNW,337,0.0,2.0,66,0.00,,,-99.99,Weather View 32 v60,2013-06-05 06:45:00,
2013-06-05 02:00:00,57.0,45.3,30.09,NNW,337,0.0,0.0,65,0.00,,,-99.99,Weather View 32 v60,2013-06-05 07:00:00,
2013-06-05 02:15:00,56.0,45.2,30.09,North,360,0.0,3.0,67,0.00,,,-99.99,Weather View 32 v60,2013-06-05 07:15:00,
2013-06-05 02:30:00,58.0,46.7,30.08,North,360,1.0,10.0,66,0.00,,,-99.99,Weather View 32 v60,2013-06-05 07:30:00,
2013-06-05 02:45:00,57.0,48.4,30.08,NNE,22,0.0,12.0,73,0.00,,,-99.99,Weather View 32 v60,2013-06-05 07:45:00,
2013-06-05 03:00:00,57.0,51.9,30.09,NW,315,2.0,12.0,83,0.00,,,-99.99,Weather View 32 v60,2013-06-05 08:00:00,
2013-06-05 03:15:00,57.0,51.9,30.10,WNW,292,1.0,12.0,83,0.00,,,-99.99,Weather View 32 v60,2013-06-05 08:15:00,
2013-06-05 03:30:00,57.0,51.9,30.09,NW,315,4.0,12.0,83,0.00,,,-99.99,Weather View 32 v60,2013-06-05 08:30:00,
2013-06-05 03:45:00,57.0,51.9,30.09,NW,315,0.0,12.0,83,0.00,,,-99.99,Weather View 32 v60,2013-06-05 08:45:00,
2013-06-05 04:00:00,56.0,50.9,30.11,NNE,22,0.0,10.0,83,0.00,,,-99.99,Weather View 32 v60,2013-06-05 09:00:00,
2013-06-05 04:15:00,56.0,50.9,30.11,NW,315,0.0,9.0,83,0.00,,,-99.99,Weather View 32 v60,2013-06-05 09:15:00,
2013-06-05 04:30:00,56.0,50.9,30.10,NNW,337,0.0,8.0,83,0.00,,,-99.99,Weather View 32 v60,2013-06-05 09:30:00,
2013-06-05 04:45:00,56.0,50.9,30.11,NNW,337,0.0,8.0,83,0.00,,,-99.99,Weather View 32 v60,2013-06-05 09:45:00,
2013-06-05 05:00:00,56.0,50.9,30.11,NNW,337,0.0,8.0,83,0.00,,,-99.99,Weather View 32 v60,2013-06-05 10:00:00,
2013-06-05 05:15:00,55.0,50.2,30.11,NW,315,3.0,8.0,84,0.00,,,-99.99,Weather View 32 v60,2013-06-05 10:15:00,
2013-06-05 05:30:00,55.0,49.9,30.10,NW,315,1.0,9.0,83,0.00,,,-99.99,Weather View 32 v60,2013-06-05 10:30:00,
2013-06-05 05:45:00,55.0,49.9,30.10,NNW,337,6.0,10.0,83,0.00,,,-99.99,Weather View 32 v60,2013-06-05 10:45:00,
2013-06-05 06:00:00,54.0,49.3,30.09,North,360,5.0,10.0,84,0.00,,,-99.99,Weather View 32 v60,2013-06-05 11:00:00,
2013-06-05 06:15:00,54.0,49.3,30.10,NW,315,3.0,10.0,84,0.00,,,-99.99,Weather View 32 v60,2013-06-05 11:15:00,
2013-06-05 06:30:00,54.0,49.3,30.09,NNW,337,2.0,10.0,84,0.00,,,-99.99,Weather View 32 v60,2013-06-05 11:30:00,
2013-06-05 06:45:00,55.0,49.9,30.09,ENE,67,5.0,9.0,83,0.00,,,-99.99,Weather View 32 v60,2013-06-05 11:45:00,
2013-06-05 07:00:00,55.0,49.9,30.10,WSW,247,4.0,9.0,83,0.00,,,-99.99,Weather View 32 v60,2013-06-05 12:00:00,
2013-06-05 07:15:00,55.0,49.9,30.12,WSW,247,0.0,9.0,83,0.00,,,-99.99,Weather View 32 v60,2013-06-05 12:15:00,
2013-06-05 07:30:00,55.0,49.9,30.12,West,270,0.0,9.0,83,0.00,,,-99.99,Weather View 32 v60,2013-06-05 12:30:00,
2013-06-05 07:35:00,55.0,49.9,30.12,West,270,0.0,9.0,83,0.00,,,-99.99,Weather View 32 v60,2013-06-05 12:35:00,
2013-06-05 07:45:00,55.0,49.9,30.13,West,270,0.0,7.0,83,0.00,,,-99.99,Weather View 32 v60,2013-06-05 12:45:00,
2013-06-05 08:00:00,57.0,51.2,30.12,WSW,247,3.0,7.0,81,0.00,,,-99.99,Weather View 32 v60,2013-06-05 13:00:00,
2013-06-05 08:15:00,57.0,50.5,30.12,WNW,292,0.0,7.0,79,0.00,,,-99.99,Weather View 32 v60,2013-06-05 13:15:00,
2013-06-05 08:30:00,58.0,50.8,30.12,West,270,0.0,16.0,77,0.00,,,-99.99,Weather View 32 v60,2013-06-05 13:30:00,
2013-06-05 08:35:00,58.0,50.8,30.12,West,270,0.0,16.0,77,0.00,,,-99.99,Weather View 32 v60,2013-06-05 13:35:00,
2013-06-05 08:45:00,59.0,51.4,30.11,WNW,292,0.0,16.0,76,0.00,,,-99.99,Weather View 32 v60,2013-06-05 13:45:00,
2013-06-05 09:00:00,60.0,50.5,30.10,West,270,1.0,16.0,71,0.00,,,-99.99,Weather View 32 v60,2013-06-05 14:00:00,
2013-06-05 09:15:00,59.0,50.3,30.12,NNW,337,9.0,16.0,73,0.00,,,-99.99,Weather View 32 v60,2013-06-05 14:15:00,
2013-06-05 09:30:00,60.0,50.5,30.10,NW,315,0.0,13.0,71,0.00,,,-99.99,Weather View 32 v60,2013-06-05 14:30:00,
2013-06-05 09:36:00,60.0,50.5,30.10,NW,315,0.0,13.0,71,0.00,,,-99.99,Weather View 32 v60,2013-06-05 14:36:00,
2013-06-05 09:45:00,60.0,49.4,30.10,West,270,2.0,15.0,68,0.00,,,-99.99,Weather View 32 v60,2013-06-05 14:45:00,
2013-06-05 10:00:00,61.0,49.9,30.10,South,180,0.0,15.0,67,0.00,,,-99.99,Weather View 32 v60,2013-06-05 15:00:00,
2013-06-05 10:15:00,61.0,48.7,30.10,North,360,8.0,15.0,64,0.00,,,-99.99,Weather View 32 v60,2013-06-05 15:15:00,
2013-06-05 10:30:00,62.0,49.7,30.08,NNW,337,10.0,15.0,64,0.00,,,-99.99,Weather View 32 v60,2013-06-05 15:30:00,
2013-06-05 10:37:00,62.0,49.7,30.08,NNW,337,10.0,15.0,64,0.00,,,-99.99,Weather View 32 v60,2013-06-05 15:37:00,
2013-06-05 10:45:00,63.0,50.6,30.08,North,360,6.0,15.0,64,0.00,,,-99.99,Weather View 32 v60,2013-06-05 15:45:00,
2013-06-05 11:00:00,61.0,49.1,30.08,West,270,3.0,17.0,65,0.00,,,-99.99,Weather View 32 v60,2013-06-05 16:00:00,
2013-06-05 11:15:00,62.0,48.8,30.08,NW,315,10.0,17.0,62,0.00,,,-99.99,Weather View 32 v60,2013-06-05 16:15:00,
2013-06-05 11:30:00,63.0,49.7,30.08,NW,315,0.0,17.0,62,0.00,,,-99.99,Weather View 32 v60,2013-06-05 16:30:00,
2013-06-05 11:37:00,63.0,49.7,30.08,NW,315,0.0,17.0,62,0.00,,,-99.99,Weather View 32 v60,2013-06-05 16:37:00,
2013-06-05 11:45:00,63.0,48.9,30.08,WNW,292,0.0,17.0,60,0.00,,,-99.99,Weather View 32 v60,2013-06-05 16:45:00,
2013-06-05 12:00:00,63.0,49.7,30.08,NW,315,4.0,17.0,62,0.00,,,-99.99,Weather View 32 v60,2013-06-05 17:00:00,
2013-06-05 12:15:00,63.0,49.7,30.08,NW,315,7.0,17.0,62,0.00,,,-99.99,Weather View 32 v60,2013-06-05 17:15:00,
2013-06-05 12:30:00,62.0,48.8,30.09,NNW,337,2.0,17.0,62,0.00,,,-99.99,Weather View 32 v60,2013-06-05 17:30:00,
2013-06-05 12:38:00,62.0,48.8,30.09,NNW,337,2.0,17.0,62,0.00,,,-99.99,Weather View 32 v60,2013-06-05 17:38:00,
2013-06-05 12:45:00,64.0,50.7,30.08,WNW,292,3.0,16.0,62,0.00,,,-99.99,Weather View 32 v60,2013-06-05 17:45:00,
2013-06-05 13:00:00,64.0,50.2,30.08,West,270,0.0,16.0,61,0.00,,,-99.99,Weather View 32 v60,2013-06-05 18:00:00,
2013-06-05 13:15:00,64.0,50.2,30.08,WNW,292,2.0,16.0,61,0.00,,,-99.99,Weather View 32 v60,2013-06-05 18:15:00,
2013-06-05 13:30:00,63.0,50.2,30.08,WNW,292,0.0,13.0,63,0.00,,,-99.99,Weather View 32 v60,2013-06-05 18:30:00,
2013-06-05 13:38:00,63.0,50.2,30.08,WNW,292,0.0,13.0,63,0.00,,,-99.99,Weather View 32 v60,2013-06-05 18:38:00,
2013-06-05 13:45:00,65.0,51.2,30.07,WSW,247,0.0,12.0,61,0.00,,,-99.99,Weather View 32 v60,2013-06-05 18:45:00,
2013-06-05 14:00:00,64.0,49.3,30.07,NNW,337,7.0,16.0,59,0.00,,,-99.99,Weather View 32 v60,2013-06-05 19:00:00,
2013-06-05 14:15:00,64.0,49.8,30.07,WSW,247,1.0,16.0,60,0.00,,,-99.99,Weather View 32 v60,2013-06-05 19:15:00,
2013-06-05 14:30:00,64.0,50.7,30.07,NNW,337,0.0,16.0,62,0.00,,,-99.99,Weather View 32 v60,2013-06-05 19:30:00,
2013-06-05 14:39:00,64.0,50.7,30.07,NNW,337,0.0,16.0,62,0.00,,,-99.99,Weather View 32 v60,2013-06-05 19:39:00,
2013-06-05 14:45:00,65.0,50.7,30.06,NNW,337,0.0,16.0,60,0.00,,,-99.99,Weather View 32 v60,2013-06-05 19:45:00,
2013-06-05 15:00:00,64.0,50.7,30.06,WNW,292,0.0,14.0,62,0.00,,,-99.99,Weather View 32 v60,2013-06-05 20:00:00,
2013-06-05 15:15:00,64.0,50.2,30.06,NW,315,0.0,13.0,61,0.00,,,-99.99,Weather View 32 v60,2013-06-05 20:15:00,
2013-06-05 15:30:00,67.0,52.6,30.04,WSW,247,3.0,13.0,60,0.00,,,-99.99,Weather View 32 v60,2013-06-05 20:30:00,
2013-06-05 15:39:00,67.0,52.6,30.04,WSW,247,3.0,13.0,60,0.00,,,-99.99,Weather View 32 v60,2013-06-05 20:39:00,
2013-06-05 15:45:00,67.0,50.3,30.04,NE,45,0.0,13.0,55,0.00,,,-99.99,Weather View 32 v60,2013-06-05 20:45:00,
2013-06-05 16:00:00,66.0,51.2,30.04,NE,45,0.0,12.0,59,0.00,,,-99.99,Weather View 32 v60,2013-06-05 21:00:00,
2013-06-05 16:15:00,68.0,51.2,30.02,North,360,6.0,10.0,55,0.00,,,-99.99,Weather View 32 v60,2013-06-05 21:15:00,
2013-06-05 16:30:00,69.0,51.6,30.03,NE,45,0.0,11.0,54,0.00,,,-99.99,Weather View 32 v60,2013-06-05 21:30:00,
2013-06-05 16:40:00,69.0,51.6,30.03,NE,45,0.0,11.0,54,0.00,,,-99.99,Weather View 32 v60,2013-06-05 21:40:00,
2013-06-05 17:00:00,70.0,52.0,30.01,NNW,337,2.0,14.0,53,0.00,,,-99.99,Weather View 32 v60,2013-06-05 22:00:00,
2013-06-05 17:15:00,70.0,52.0,30.01,NW,315,7.0,14.0,53,0.00,,,-99.99,Weather View 32 v60,2013-06-05 22:15:00,
2013-06-05 17:30:00,69.0,51.1,30.01,NNW,337,8.0,14.0,53,0.00,,,-99.99,Weather View 32 v60,2013-06-05 22:30:00,
2013-06-05 17:41:00,69.0,51.1,30.01,NNW,337,8.0,14.0,53,0.00,,,-99.99,Weather View 32 v60,2013-06-05 22:41:00,
2013-06-05 18:00:00,69.0,51.1,30.00,NW,315,5.0,14.0,53,0.00,,,-99.99,Weather View 32 v60,2013-06-05 23:00:00,
2013-06-05 18:15:00,68.0,51.2,30.00,NW,315,6.0,15.0,55,0.00,,,-99.99,Weather View 32 v60,2013-06-05 23:15:00,
2013-06-05 18:30:00,67.0,51.2,30.01,NW,315,3.0,15.0,57,0.00,,,-99.99,Weather View 32 v60,2013-06-05 23:30:00,
2013-06-05 18:41:00,67.0,51.2,30.01,NW,315,3.0,15.0,57,0.00,,,-99.99,Weather View 32 v60,2013-06-05 23:41:00,
2013-06-05 19:00:00,66.0,51.2,30.01,NW,315,1.0,15.0,59,0.00,,,-99.99,Weather View 32 v60,2013-06-06 00:00:00,
2013-06-05 19:15:00,65.0,51.6,30.02,NW,315,0.0,13.0,62,0.00,,,-99.99,Weather View 32 v60,2013-06-06 00:15:00,
2013-06-05 19:30:00,66.0,53.0,30.01,NNE,22,0.0,10.0,63,0.00,,,-99.99,Weather View 32 v60,2013-06-06 00:30:00,
2013-06-05 19:42:00,66.0,53.0,30.01,NNE,22,0.0,10.0,63,0.00,,,-99.99,Weather View 32 v60,2013-06-06 00:42:00,
2013-06-05 20:00:00,65.0,51.6,30.02,West,270,3.0,13.0,62,0.00,,,-99.99,Weather View 32 v60,2013-06-06 01:00:00,
2013-06-05 20:15:00,65.0,52.5,30.02,West,270,0.0,13.0,64,0.00,,,-99.99,Weather View 32 v60,2013-06-06 01:15:00,
2013-06-05 20:30:00,64.0,52.4,30.02,WNW,292,0.0,13.0,66,0.00,,,-99.99,Weather View 32 v60,2013-06-06 01:30:00,
2013-06-05 20:42:00,64.0,52.4,30.02,WNW,292,0.0,13.0,66,0.00,,,-99.99,Weather View 32 v60,2013-06-06 01:42:00,
2013-06-05 21:00:00,63.0,53.0,30.02,West,270,0.0,9.0,70,0.00,,,-99.99,Weather View 32 v60,2013-06-06 02:00:00,
2013-06-05 21:15:00,63.0,53.4,30.03,West,270,4.0,8.0,71,0.00,,,-99.99,Weather View 32 v60,2013-06-06 02:15:00,
2013-06-05 21:30:00,63.0,53.8,30.03,NW,315,0.0,8.0,72,0.00,,,-99.99,Weather View 32 v60,2013-06-06 02:30:00,
2013-06-05 21:43:00,63.0,53.8,30.03,NW,315,0.0,8.0,72,0.00,,,-99.99,Weather View 32 v60,2013-06-06 02:43:00,
2013-06-05 22:00:00,62.0,53.6,30.04,WNW,292,0.0,7.0,74,0.00,,,-99.99,Weather View 32 v60,2013-06-06 03:00:00,
2013-06-05 22:15:00,62.0,53.6,30.04,NW,315,0.0,7.0,74,0.00,,,-99.99,Weather View 32 v60,2013-06-06 03:15:00,
2013-06-05 22:30:00,62.0,53.6,30.04,NNW,337,3.0,7.0,74,0.00,,,-99.99,Weather View 32 v60,2013-06-06 03:30:00,
2013-06-05 22:43:00,62.0,53.6,30.04,NNW,337,3.0,7.0,74,0.00,,,-99.99,Weather View 32 v60,2013-06-06 03:43:00,
2013-06-05 23:00:00,61.0,53.7,30.05,West,270,0.0,5.0,77,0.00,,,-99.99,Weather View 32 v60,2013-06-06 04:00:00,
2013-06-05 23:15:00,61.0,54.1,30.05,NNW,337,0.0,5.0,78,0.00,,,-99.99,Weather View 32 v60,2013-06-06 04:15:00,
2013-06-05 23:30:00,61.0,54.4,30.06,NW,315,0.0,3.0,79,0.00,,,-99.99,Weather View 32 v60,2013-06-06 04:30:00,
2013-06-05 23:44:00,61.0,54.4,30.06,NW,315,0.0,3.0,79,0.00,,,-99.99,Weather View 32 v60,2013-06-06 04:44:00,
2013-06-05 23:45:00,60.0,53.5,30.05,NE,45,0.0,3.0,79,0.00,,,-99.99,Weather View 32 v60,2013-06-06 04:45:00,